#timestamp,LO_Frequency,Hit,StdDev 
1619460015.5,286047002.0,N
1619460035.3,286047005.6,N
1619460055.2,286047004.0,N
1619460075.0,286046998.2,N
1619460075.9,286046998.2,N
1619460095.8,286046998.2,N
1619460115.6,286047002.4,N
1619460135.4,286047002.6,N
1619460155.3,286046998.1,N
1619460175.1,286046998.9,N
1619460195.8,286047011.9,Y
1619460215.7,286047004.4,P
1619460235.5,286047005.9,N
1619460255.4,286047004.9,N
1619460275.2,286047005.6,N
1619460295.0,286047004.9,N
1619460295.9,286047004.9,N
1619460315.8,286047002.9,N
1619460335.2,286047002.0,N
1619460355.9,286047000.2,N
1619460375.7,286046998.5,N
1619460395.6,286047001.0,N
1619460415.4,286047002.8,N
1619460435.2,286046998.1,N
1619460455.1,286047000.4,N
1619460456.0,286047000.4,N
1619460475.8,286047000.3,N
1619460495.7,286046999.2,N
1619460515.5,286046996.9,N
1619460535.3,286046996.6,N
1619460555.2,286046997.5,N
1619460575.0,286046994.9,N
1619460575.9,286046994.9,N
1619460595.8,286046995.8,N
1619460615.6,286046994.9,N
1619460635.4,286046998.6,N
1619460655.3,286046999.3,N
1619460675.1,286046999.5,N
1619460695.8,286046996.8,N
1619460715.7,286046997.1,N
1619460735.5,286046997.4,N
1619460755.4,286046996.7,N
1619460775.2,286046997.0,N
1619460795.0,286046999.4,N
1619460795.9,286046999.4,N
1619460815.8,286046999.2,N
1619460835.6,286046996.8,N
1619460855.5,286046998.2,N
1619460875.3,286047003.7,N
1619460895.1,286047003.3,N
1619460915.9,286047001.7,N
1619460935.7,286047004.2,N
1619460955.6,286047001.4,N
1619460975.4,286047001.3,N
1619460995.2,286047000.9,N
1619461015.1,286046999.1,N
1619461016.0,286046999.1,N
1619461035.8,286046998.3,N
1619461055.7,286046998.9,N
1619461075.5,286046998.9,N
1619461095.3,286046998.2,N
1619461115.2,286046999.8,N
1619461135.0,286047001.4,N
1619461135.9,286047001.4,N
1619461155.7,286047002.7,N
1619461175.6,286046998.5,N
1619461195.4,286046999.1,N
1619461215.3,286046996.8,N
1619461235.1,286046997.8,N
1619461236.0,286046997.8,N
1619461255.8,286046998.9,N
1619461275.7,286046999.7,N
1619461295.5,286047000.2,N
1619461315.3,286046998.4,N
1619461335.2,286047000.6,N
1619461355.0,286046997.0,N
1619461355.9,286046997.0,N
1619461375.8,286046996.5,N
1619461395.6,286046998.3,N
1619461415.4,286047000.6,N
1619461435.3,286046998.8,N
1619461455.1,286047001.0,N
1619461475.8,286046998.6,N
1619461495.7,286046999.5,N
1619461515.5,286046998.8,N
1619461535.4,286046999.8,N
1619461555.2,286047000.6,N
1619461575.0,286046999.3,N
1619461575.9,286046999.3,N
1619461595.8,286046999.3,N
1619461615.6,286046997.3,N
1619461635.5,286046995.3,Y
1619461655.3,286046999.2,P
1619461675.1,286047000.0,N
1619461695.9,286047000.8,N
1619461715.7,286047001.0,N
1619461735.5,286047000.3,N
1619461755.4,286047004.3,Y
1619461775.2,286047001.9,P
1619461795.1,286047002.2,N
1619461796.0,286047002.2,N
1619461815.8,286047000.0,N
1619461835.6,286047000.0,N
1619461855.5,286047002.8,N
1619461875.3,286047000.4,N
1619461895.2,286046998.4,N
1619461915.9,286046998.8,N
1619461935.7,286046998.9,N
1619461955.6,286046998.7,N
1619461975.4,286046999.4,N
1619461995.2,286046998.3,N
1619462015.1,286046998.1,N
1619462016.0,286046998.1,N
1619462035.8,286046999.9,N
1619462055.7,286046998.8,N
1619462075.5,286046998.9,N
1619462095.3,286047002.6,N
1619462115.2,286047002.6,N
1619462135.9,286046998.1,N
1619462155.7,286047002.6,N
1619462175.6,286047000.5,N
1619462195.4,286047000.4,N
1619462215.2,286047002.2,N
1619462235.1,286047001.5,N
1619462236.0,286047001.5,N
1619462255.8,286047005.6,Y
1619462275.7,286047005.3,P
1619462295.5,286047003.3,N
1619462315.3,286047004.2,N
1619462335.2,286047002.5,N
1619462355.0,286047003.7,N
1619462355.9,286047003.7,N
1619462375.8,286047005.4,Y
1619462395.6,286047001.3,P
1619462415.4,286047003.8,P
1619462435.3,286047005.9,P
1619462455.1,286047002.6,N
1619462475.9,286047001.5,N
1619462495.7,286047002.3,N
1619462515.5,286047000.1,N
1619462535.4,286047000.5,N
1619462555.2,286046998.6,N
1619462575.0,286047001.0,N
1619462575.9,286047001.0,N
1619462595.8,286046999.2,N
1619462615.6,286046999.5,N
1619462635.5,286046996.8,N
1619462655.3,286047001.7,N
1619462675.1,286047003.5,N
1619462695.9,286047002.1,N
1619462715.7,286047000.4,N
1619462735.6,286046998.2,N
1619462755.4,286047000.6,N
1619462775.2,286047000.6,N
1619462795.1,286047001.9,N
1619462796.0,286047001.9,N
1619462815.8,286047004.0,N
1619462835.6,286047001.7,N
1619462855.5,286047005.5,N
1619462875.3,286047004.0,N
1619462895.2,286047002.9,N
1619462915.9,286047004.3,N
1619462935.7,286047002.0,N
1619462955.6,286047000.1,N
1619462975.4,286047002.3,N
1619462995.2,286047003.3,N
1619463015.1,286047004.3,N
1619463016.0,286047004.3,N
1619463035.8,286047006.0,N
1619463055.7,286047004.1,N
1619463075.5,286047004.1,N
1619463095.3,286047001.3,N
1619463115.2,286047002.5,N
1619463135.0,286047000.5,N
1619463135.9,286047000.5,N
1619463155.7,286046999.9,N
1619463205.6,286046998.2,E
1619463215.5,286046998.2,N
1619463235.4,286047002.0,P
1619463255.2,286047002.1,N
1619463275.0,286047004.1,N
1619463275.9,286047004.1,N
1619463295.8,286047004.1,N
1619463315.6,286047004.2,N
1619463335.4,286047005.9,N
1619463355.3,286047006.0,N
1619463375.1,286047004.9,N
1619463395.9,286047007.4,Y
1619463415.7,286046999.9,P
1619463435.5,286046999.8,N
1619463455.4,286047004.4,N
1619463475.2,286047003.2,N
1619463495.0,286047003.1,N
1619463496.0,286047003.1,N
1619463515.8,286047003.9,N
1619463535.6,286047001.4,N
1619463555.5,286046999.7,N
1619463575.3,286047000.2,N
1619463595.1,286046998.6,N
